Time,TemperatureF,DewpointF,PressureIn,WindDirection,WindDirectionDegrees,WindSpeedMPH,WindSpeedGustMPH,Humidity,HourlyPrecipIn,Conditions,Clouds,dailyrainin,SoftwareType,DateUTC
2013-03-27 00:00:00,32.9,28.6,29.99,NE,53,0.0,8.0,84,0.00,,SKC,0.00,VWS V14.01,2013-03-27 04:00:00,
2013-03-27 01:00:00,32.7,28.4,29.99,NE,45,5.0,9.0,84,0.00,,SKC,0.00,VWS V14.01,2013-03-27 05:00:00,
2013-03-27 02:00:00,32.1,28.1,29.98,NE,46,0.0,11.0,85,0.00,,SKC,0.00,VWS V14.01,2013-03-27 06:00:00,
2013-03-27 03:00:00,32.1,27.8,29.98,NNE,28,3.0,9.0,84,0.00,,SKC,0.00,VWS V14.01,2013-03-27 07:00:00,
2013-03-27 04:00:00,32.2,27.9,29.98,NE,44,0.0,9.0,84,0.00,,SKC,0.00,VWS V14.01,2013-03-27 08:00:00,
2013-03-27 04:30:00,32.2,27.6,29.98,NE,34,2.0,11.0,83,0.00,,SKC,0.00,VWS V14.01,2013-03-27 08:30:00,
2013-03-27 04:31:00,32.2,27.6,29.98,NE,36,1.0,11.0,83,0.00,,SKC,0.00,VWS V14.01,2013-03-27 08:31:00,
2013-03-27 04:32:00,32.2,27.6,29.98,NE,35,0.0,11.0,83,0.00,,SKC,0.00,VWS V14.01,2013-03-27 08:32:00,
2013-03-27 04:33:00,32.2,27.6,29.98,NE,35,0.0,11.0,83,0.00,,SKC,0.00,VWS V14.01,2013-03-27 08:33:00,
2013-03-27 04:34:00,32.2,27.6,29.98,NE,35,1.0,11.0,83,0.00,,SKC,0.00,VWS V14.01,2013-03-27 08:34:00,
2013-03-27 05:00:00,32.1,27.8,29.99,ENE,69,0.0,11.0,84,0.00,,SKC,0.00,VWS V14.01,2013-03-27 09:00:00,
2013-03-27 06:00:00,31.6,27.9,30.01,ENE,67,0.0,9.0,86,0.00,,SKC,0.00,VWS V14.01,2013-03-27 10:00:00,
2013-03-27 06:41:00,31.5,28.4,30.01,ENE,63,5.0,9.0,88,0.00,,SKC,0.00,VWS V14.01,2013-03-27 10:41:00,
2013-03-27 06:42:00,31.5,28.4,30.01,ENE,63,0.0,9.0,88,0.00,,SKC,0.00,VWS V14.01,2013-03-27 10:42:00,
2013-03-27 06:43:00,31.5,28.4,30.01,ENE,63,0.0,9.0,88,0.00,,SKC,0.00,VWS V14.01,2013-03-27 10:43:00,
2013-03-27 06:44:00,31.5,28.1,30.01,ENE,63,2.0,9.0,87,0.00,,SKC,0.00,VWS V14.01,2013-03-27 10:44:00,
2013-03-27 06:45:00,31.5,28.1,30.02,ENE,57,10.0,10.0,87,0.00,,SKC,0.00,VWS V14.01,2013-03-27 10:45:00,
2013-03-27 06:46:00,31.5,28.1,30.02,NE,43,4.0,10.0,87,0.00,,SKC,0.00,VWS V14.01,2013-03-27 10:46:00,
2013-03-27 06:47:00,31.5,28.1,30.02,NE,43,5.0,10.0,87,0.00,,SKC,0.00,VWS V14.01,2013-03-27 10:47:00,
2013-03-27 06:48:00,31.5,28.1,30.02,ENE,77,5.0,10.0,87,0.00,,SKC,0.00,VWS V14.01,2013-03-27 10:48:00,
2013-03-27 06:49:00,31.5,28.1,30.02,ENE,57,7.0,10.0,87,0.00,,SKC,0.00,VWS V14.01,2013-03-27 10:49:00,
2013-03-27 06:50:00,31.5,28.1,30.02,NE,53,0.0,10.0,87,0.00,,SKC,0.00,VWS V14.01,2013-03-27 10:50:00,
2013-03-27 06:51:00,31.5,28.1,30.02,NE,53,3.0,10.0,87,0.00,,SKC,0.00,VWS V14.01,2013-03-27 10:51:00,
2013-03-27 06:52:00,31.5,28.1,30.02,NNE,21,0.0,10.0,87,0.00,,SKC,0.00,VWS V14.01,2013-03-27 10:52:00,
2013-03-27 06:53:00,31.5,28.1,30.02,East,91,1.0,10.0,87,0.00,,SKC,0.00,VWS V14.01,2013-03-27 10:53:00,
2013-03-27 06:54:00,31.5,28.1,30.02,NE,38,6.0,10.0,87,0.00,,SKC,0.00,VWS V14.01,2013-03-27 10:54:00,
2013-03-27 06:55:00,31.5,28.1,30.02,NE,38,4.0,10.0,87,0.00,,SKC,0.00,VWS V14.01,2013-03-27 10:55:00,
2013-03-27 06:57:00,31.5,28.1,30.02,NE,55,9.0,11.0,87,0.00,,SKC,0.00,VWS V14.01,2013-03-27 10:57:00,
2013-03-27 07:00:00,31.5,27.8,30.03,ENE,69,6.0,11.0,86,0.00,,SKC,0.00,VWS V14.01,2013-03-27 11:00:00,
2013-03-27 07:49:00,31.5,28.1,30.02,ENE,64,2.0,10.0,87,0.00,,SKC,0.00,VWS V14.01,2013-03-27 11:49:00,
2013-03-27 07:54:00,31.5,28.1,30.02,NE,37,0.0,10.0,87,0.00,,SKC,0.00,VWS V14.01,2013-03-27 11:54:00,
2013-03-27 08:00:00,32.1,27.5,30.05,East,86,7.0,12.0,83,0.00,,SKC,0.00,VWS V14.01,2013-03-27 12:00:00,
2013-03-27 09:00:00,34.3,26.9,30.05,NE,56,5.0,14.0,74,0.01,,SKC,0.01,VWS V14.01,2013-03-27 13:00:00,
2013-03-27 10:00:00,36.2,24.5,30.05,NE,56,7.0,19.0,62,0.01,,SKC,0.01,VWS V14.01,2013-03-27 14:00:00,
2013-03-27 11:00:00,36.2,21.6,30.06,East,89,13.0,24.0,55,0.00,,SKC,0.01,VWS V14.01,2013-03-27 15:00:00,
2013-03-27 12:00:00,39.1,23.9,30.05,NE,55,6.0,21.0,54,0.00,,SKC,0.01,VWS V14.01,2013-03-27 16:00:00,
2013-03-27 13:00:00,40.3,23.1,30.04,NNE,13,0.0,21.0,50,0.00,,SKC,0.01,VWS V14.01,2013-03-27 17:00:00,
2013-03-27 14:00:00,39.6,23.9,30.04,NE,42,5.0,18.0,53,0.00,,SKC,0.01,VWS V14.01,2013-03-27 18:00:00,
2013-03-27 15:00:00,40.3,23.6,30.03,ENE,65,6.0,16.0,51,0.00,,SKC,0.01,VWS V14.01,2013-03-27 19:00:00,
2013-03-27 15:31:00,40.3,24.1,30.04,NE,48,4.0,14.0,52,0.00,,SKC,0.01,VWS V14.01,2013-03-27 19:31:00,
2013-03-27 15:32:00,40.3,24.1,30.04,North,360,7.0,14.0,52,0.00,,SKC,0.01,VWS V14.01,2013-03-27 19:32:00,
2013-03-27 15:33:00,40.3,24.1,30.04,NNE,24,5.0,14.0,52,0.00,,SKC,0.01,VWS V14.01,2013-03-27 19:33:00,
2013-03-27 15:34:00,40.3,24.1,30.04,NE,49,2.0,14.0,52,0.00,,SKC,0.01,VWS V14.01,2013-03-27 19:34:00,
2013-03-27 15:35:00,40.5,24.7,30.04,NNW,330,0.0,14.0,53,0.00,,SKC,0.01,VWS V14.01,2013-03-27 19:35:00,
2013-03-27 15:36:00,40.5,24.3,30.04,ENE,66,4.0,14.0,52,0.00,,SKC,0.01,VWS V14.01,2013-03-27 19:36:00,
2013-03-27 15:37:00,40.5,24.3,30.04,NNE,32,6.0,14.0,52,0.00,,SKC,0.01,VWS V14.01,2013-03-27 19:37:00,
2013-03-27 15:38:00,40.5,24.7,30.04,ENE,70,9.0,14.0,53,0.00,,SKC,0.01,VWS V14.01,2013-03-27 19:38:00,
2013-03-27 15:39:00,40.6,24.4,30.04,NE,35,6.0,14.0,52,0.00,,SKC,0.01,VWS V14.01,2013-03-27 19:39:00,
2013-03-27 15:40:00,40.6,24.4,30.04,East,80,6.0,14.0,52,0.00,,SKC,0.01,VWS V14.01,2013-03-27 19:40:00,
2013-03-27 15:41:00,40.6,24.4,30.04,NE,34,8.0,16.0,52,0.00,,SKC,0.01,VWS V14.01,2013-03-27 19:41:00,
2013-03-27 15:42:00,40.6,23.9,30.04,ENE,76,6.0,16.0,51,0.00,,SKC,0.01,VWS V14.01,2013-03-27 19:42:00,
2013-03-27 15:43:00,40.6,24.4,30.04,ENE,71,8.0,16.0,52,0.00,,SKC,0.01,VWS V14.01,2013-03-27 19:43:00,
2013-03-27 15:44:00,40.6,24.4,30.04,ENE,59,7.0,16.0,52,0.00,,SKC,0.01,VWS V14.01,2013-03-27 19:44:00,
2013-03-27 15:45:00,40.5,24.3,30.04,NE,49,3.0,16.0,52,0.00,,SKC,0.01,VWS V14.01,2013-03-27 19:45:00,
2013-03-27 15:46:00,40.5,23.8,30.04,NNE,13,0.0,16.0,51,0.00,,SKC,0.01,VWS V14.01,2013-03-27 19:46:00,
2013-03-27 15:47:00,40.5,24.3,30.04,NW,325,4.0,16.0,52,0.00,,SKC,0.01,VWS V14.01,2013-03-27 19:47:00,
2013-03-27 15:48:00,40.5,24.3,30.04,NNE,17,1.0,16.0,52,0.00,,SKC,0.01,VWS V14.01,2013-03-27 19:48:00,
2013-03-27 15:49:00,40.5,24.3,30.04,ENE,62,9.0,16.0,52,0.00,,SKC,0.01,VWS V14.01,2013-03-27 19:49:00,
2013-03-27 16:00:00,40.2,24.0,30.03,ENE,59,6.0,16.0,52,0.00,,SKC,0.01,VWS V14.01,2013-03-27 20:00:00,
2013-03-27 16:32:00,40.3,24.5,30.04,ESE,109,5.0,14.0,53,0.00,,SKC,0.01,VWS V14.01,2013-03-27 20:32:00,
2013-03-27 16:37:00,40.5,24.3,30.04,NE,36,5.0,14.0,52,0.00,,SKC,0.01,VWS V14.01,2013-03-27 20:37:00,
2013-03-27 16:43:00,40.6,24.4,30.04,ENE,66,7.0,16.0,52,0.00,,SKC,0.01,VWS V14.01,2013-03-27 20:43:00,
2013-03-27 16:49:00,40.5,24.3,30.04,North,355,5.0,16.0,52,0.00,,SKC,0.01,VWS V14.01,2013-03-27 20:49:00,
2013-03-27 16:54:00,40.3,24.1,30.04,NE,49,2.0,16.0,52,0.00,,SKC,0.01,VWS V14.01,2013-03-27 20:54:00,
2013-03-27 16:59:00,40.2,25.3,30.04,NNE,26,6.0,16.0,55,0.00,,SKC,0.01,VWS V14.01,2013-03-27 20:59:00,
2013-03-27 17:00:00,40.2,23.1,30.04,NE,50,7.0,20.0,50,0.00,,SKC,0.01,VWS V14.01,2013-03-27 21:00:00,
2013-03-27 17:04:00,40.6,24.4,30.03,NNE,26,4.0,11.0,52,0.00,,SKC,0.01,VWS V14.01,2013-03-27 21:04:00,
2013-03-27 17:09:00,41.6,24.4,30.03,ENE,67,1.0,11.0,50,0.00,,SKC,0.01,VWS V14.01,2013-03-27 21:09:00,
2013-03-27 17:14:00,42.2,25.9,30.03,NE,46,9.0,11.0,52,0.00,,SKC,0.01,VWS V14.01,2013-03-27 21:14:00,
2013-03-27 17:19:00,42.3,24.5,30.03,NE,53,0.0,11.0,49,0.00,,SKC,0.01,VWS V14.01,2013-03-27 21:19:00,
2013-03-27 17:24:00,42.3,24.5,30.03,East,86,5.0,11.0,49,0.00,,SKC,0.01,VWS V14.01,2013-03-27 21:24:00,
2013-03-27 17:29:00,41.6,23.9,30.03,ENE,67,0.0,20.0,49,0.00,,SKC,0.01,VWS V14.01,2013-03-27 21:29:00,
2013-03-27 17:34:00,41.2,24.5,30.03,ENE,66,9.0,20.0,51,0.00,,SKC,0.01,VWS V14.01,2013-03-27 21:34:00,
2013-03-27 17:39:00,40.6,23.4,30.03,ENE,66,7.0,20.0,50,0.00,,SKC,0.01,VWS V14.01,2013-03-27 21:39:00,
2013-03-27 17:44:00,40.5,23.8,30.04,ENE,65,6.0,20.0,51,0.00,,SKC,0.01,VWS V14.01,2013-03-27 21:44:00,
2013-03-27 17:49:00,40.2,23.5,30.04,NE,51,7.0,20.0,51,0.00,,SKC,0.01,VWS V14.01,2013-03-27 21:49:00,
2013-03-27 17:55:00,40.2,23.1,30.04,NNE,17,11.0,20.0,50,0.00,,SKC,0.01,VWS V14.01,2013-03-27 21:55:00,
2013-03-27 18:00:00,40.2,23.1,30.04,NE,45,1.0,20.0,50,0.00,,SKC,0.01,VWS V14.01,2013-03-27 22:00:00,
2013-03-27 18:05:00,40.1,23.4,30.04,NE,54,7.0,11.0,51,0.00,,SKC,0.01,VWS V14.01,2013-03-27 22:05:00,
2013-03-27 18:10:00,39.9,23.7,30.04,East,80,5.0,11.0,52,0.00,,SKC,0.01,VWS V14.01,2013-03-27 22:10:00,
2013-03-27 18:15:00,39.9,23.7,30.04,ENE,74,9.0,13.0,52,0.00,,SKC,0.01,VWS V14.01,2013-03-27 22:15:00,
2013-03-27 18:20:00,39.9,23.7,30.04,ENE,69,2.0,14.0,52,0.00,,SKC,0.01,VWS V14.01,2013-03-27 22:20:00,
2013-03-27 18:25:00,39.8,23.2,30.04,ENE,72,0.0,18.0,51,0.00,,SKC,0.01,VWS V14.01,2013-03-27 22:25:00,
2013-03-27 18:30:00,39.8,23.2,30.05,North,11,7.0,18.0,51,0.00,,SKC,0.01,VWS V14.01,2013-03-27 22:30:00,
2013-03-27 18:35:00,39.6,23.0,30.05,ENE,59,12.0,18.0,51,0.00,,SKC,0.01,VWS V14.01,2013-03-27 22:35:00,
2013-03-27 18:41:00,39.6,23.0,30.05,ENE,63,2.0,18.0,51,0.00,,SKC,0.01,VWS V14.01,2013-03-27 22:41:00,
2013-03-27 18:46:00,39.6,23.0,30.05,NE,56,4.0,18.0,51,0.00,,SKC,0.01,VWS V14.01,2013-03-27 22:46:00,
2013-03-27 18:51:00,39.5,23.4,30.05,East,84,8.0,18.0,52,0.00,,SKC,0.01,VWS V14.01,2013-03-27 22:51:00,
2013-03-27 18:56:00,39.5,23.4,30.05,ENE,70,5.0,18.0,52,0.00,,SKC,0.01,VWS V14.01,2013-03-27 22:56:00,
2013-03-27 19:00:00,38.9,24.1,30.06,NE,46,6.0,14.0,55,0.00,,SKC,0.01,VWS V14.01,2013-03-27 23:00:00,
2013-03-27 19:01:00,39.5,23.4,30.05,ENE,63,6.0,9.0,52,0.00,,SKC,0.01,VWS V14.01,2013-03-27 23:01:00,
2013-03-27 19:06:00,39.3,23.6,30.05,East,93,4.0,11.0,53,0.00,,SKC,0.01,VWS V14.01,2013-03-27 23:06:00,
2013-03-27 19:11:00,39.3,23.2,30.05,ENE,64,11.0,14.0,52,0.00,,SKC,0.01,VWS V14.01,2013-03-27 23:11:00,
2013-03-27 19:17:00,39.3,23.6,30.05,NE,41,4.0,14.0,53,0.00,,SKC,0.01,VWS V14.01,2013-03-27 23:17:00,
2013-03-27 19:22:00,39.3,24.1,30.05,NE,46,0.0,14.0,54,0.00,,SKC,0.01,VWS V14.01,2013-03-27 23:22:00,
2013-03-27 19:27:00,39.2,24.0,30.05,NE,43,0.0,14.0,54,0.00,,SKC,0.01,VWS V14.01,2013-03-27 23:27:00,
2013-03-27 19:32:00,39.2,24.0,30.05,NE,51,0.0,14.0,54,0.00,,SKC,0.01,VWS V14.01,2013-03-27 23:32:00,
2013-03-27 19:37:00,39.1,24.3,30.05,NE,51,0.0,14.0,55,0.00,,SKC,0.01,VWS V14.01,2013-03-27 23:37:00,
2013-03-27 19:42:00,39.1,24.3,30.05,NE,51,4.0,14.0,55,0.00,,SKC,0.01,VWS V14.01,2013-03-27 23:42:00,
2013-03-27 19:47:00,38.9,24.6,30.06,ENE,65,0.0,14.0,56,0.00,,SKC,0.01,VWS V14.01,2013-03-27 23:47:00,
2013-03-27 19:52:00,38.9,24.6,30.06,NE,36,5.0,14.0,56,0.00,,SKC,0.01,VWS V14.01,2013-03-27 23:52:00,
2013-03-27 19:57:00,38.8,24.5,30.06,ENE,78,9.0,14.0,56,0.00,,SKC,0.01,VWS V14.01,2013-03-27 23:57:00,
2013-03-27 20:00:00,37.9,26.1,30.06,NE,38,0.0,14.0,62,0.00,,SKC,0.01,VWS V14.01,2013-03-28 00:00:00,
2013-03-27 20:02:00,38.9,24.1,30.06,ENE,63,4.0,11.0,55,0.00,,SKC,0.01,VWS V14.01,2013-03-28 00:02:00,
2013-03-27 20:07:00,38.9,24.6,30.06,ENE,66,4.0,11.0,56,0.00,,SKC,0.01,VWS V14.01,2013-03-28 00:07:00,
2013-03-27 20:12:00,38.8,24.9,30.06,NE,53,5.0,12.0,57,0.00,,SKC,0.01,VWS V14.01,2013-03-28 00:12:00,
2013-03-27 20:17:00,38.6,24.7,30.06,NE,40,3.0,12.0,57,0.00,,SKC,0.01,VWS V14.01,2013-03-28 00:17:00,
2013-03-27 20:22:00,38.6,25.1,30.06,NE,38,2.0,12.0,58,0.00,,SKC,0.01,VWS V14.01,2013-03-28 00:22:00,
2013-03-27 20:27:00,38.5,25.4,30.06,NNE,28,12.0,14.0,59,0.00,,SKC,0.01,VWS V14.01,2013-03-28 00:27:00,
2013-03-27 20:32:00,38.3,25.2,30.06,NNE,24,4.0,14.0,59,0.00,,SKC,0.01,VWS V14.01,2013-03-28 00:32:00,
2013-03-27 20:38:00,38.3,25.6,30.06,NNE,23,2.0,14.0,60,0.00,,SKC,0.01,VWS V14.01,2013-03-28 00:38:00,
2013-03-27 20:43:00,38.2,25.5,30.06,NE,51,1.0,14.0,60,0.00,,SKC,0.01,VWS V14.01,2013-03-28 00:43:00,
2013-03-27 20:48:00,38.0,25.8,30.06,ENE,65,4.0,14.0,61,0.00,,SKC,0.01,VWS V14.01,2013-03-28 00:48:00,
2013-03-27 20:53:00,38.0,26.1,30.06,NNE,27,4.0,14.0,62,0.00,,SKC,0.01,VWS V14.01,2013-03-28 00:53:00,
2013-03-27 20:58:00,37.9,26.1,30.06,NE,38,0.0,14.0,62,0.00,,SKC,0.01,VWS V14.01,2013-03-28 00:58:00,
2013-03-27 21:00:00,37.0,26.3,30.07,NNE,30,0.0,11.0,65,0.00,,SKC,0.01,VWS V14.01,2013-03-28 01:00:00,
2013-03-27 22:00:00,36.2,26.3,30.06,NNE,17,4.0,18.0,67,0.00,,SKC,0.01,VWS V14.01,2013-03-28 02:00:00,
2013-03-27 23:00:00,35.8,25.9,30.06,NE,44,8.0,13.0,67,0.00,,SKC,0.01,VWS V14.01,2013-03-28 03:00:00,